Mount Ida, AR

12:06 PM CDT on May 28, 2017 (GMT -0500)
Mount Ida

Weather History for KMWT - November, 2011

Change the Weather History Date:

Tuesday, November 1, 2011

  Actual Average (KHOT) Record (KHOT)
Temperature  
Mean Temperature 58 °F -  
Max Temperature 73 °F 70 °F 86 °F (1984)
Min Temperature 42 °F 49 °F 24 °F (1993)
Degree Days  
Heating Degree Days 8    
Growing Degree Days 8 (Base 50)    
Moisture  
Dew Point 38 °F    
Average Humidity 48    
Maximum Humidity 93    
Minimum Humidity 30    
Precipitation  
Precipitation 0.00 in - - ()
Sea Level Pressure  
Sea Level Pressure 30.11 in    
Wind  
Wind Speed 4 mph (SE)    
Max Wind Speed 9 mph    
Max Gust Speed 17 mph    
Visibility 10 miles    
Events      
Averages and records for this station are not official NWS values.
T = Trace of Precipitation, MM = Missing Value Source: NWS Daily Summary

Daily Weather History Graph

Daily Weather History Graph

Search for Another Location

Airport or City:

Trip Planner

Search our weather history database for the weather conditions in past years. The results will help you decide how hot, cold, wet, or windy it might be!

Date:

Astronomy

Nov. 01, 2011 Rise Set
Actual Time 7:34 AM CDT 6:20 PM CDT
Civil Twilight 7:08 AM CDT 6:46 PM CDT
Nautical Twilight 6:38 AM CDT 7:16 PM CDT
Astronomical Twilight 6:09 AM CDT 7:46 PM CDT
Moon 1:18 PM CDT (11/1) No Moon Set
Length of Visible Light 11h 38m
Length of Day
10h 46m
Waxing Crescent, 40% of the Moon is Illuminated
Nov 1
Waxing Crescent
Nov 2
First Quarter
Nov 10
Full
Nov 18
Last Quarter
Nov 25
New

Hourly Weather History & Observations

Time (CDT) Temp. Windchill Dew Point Humidity Pressure Visibility Wind Dir Wind Speed Gust Speed Precip Events Conditions
1:53 AM 43.0 °F - 41.0 °F 93% 30.14 in 10.0 mi Calm Calm - N/A   Clear
2:53 AM 43.0 °F 41.3 °F 41.0 °F 93% 30.14 in 10.0 mi Variable 3.5 mph - N/A   Clear
3:53 AM 44.1 °F - 39.9 °F 85% 30.14 in 10.0 mi Calm Calm - N/A   Clear
4:53 AM 42.1 °F - 39.0 °F 89% 30.15 in 10.0 mi Calm Calm - N/A   Clear
6:53 AM 57.0 °F - 28.9 °F 34% 30.15 in 10.0 mi Variable 3.5 mph - N/A   Clear
7:53 AM 53.1 °F - 32.0 °F 45% 30.17 in 10.0 mi Variable 3.5 mph - N/A   Clear
10:53 AM 64.0 °F - 39.0 °F 40% 30.19 in 10.0 mi Variable 6.9 mph - N/A   Clear
11:53 AM 66.9 °F - 41.0 °F 39% 30.17 in 10.0 mi Variable 6.9 mph - N/A   Clear
12:53 PM 69.1 °F - 42.1 °F 38% 30.14 in 10.0 mi Variable 4.6 mph - N/A   Clear
1:53 PM 72.0 °F - 41.0 °F 33% 30.11 in 10.0 mi Variable 4.6 mph - N/A   Clear
2:53 PM 73.0 °F - 39.9 °F 30% 30.09 in 10.0 mi SSE 9.2 mph 17.3 mph N/A   Clear
3:53 PM 73.0 °F - 41.0 °F 31% 30.08 in 10.0 mi SE 9.2 mph - N/A   Clear
4:53 PM 72.0 °F - 39.0 °F 30% 30.08 in 10.0 mi Variable 5.8 mph - N/A   Clear
5:53 PM 69.1 °F - 37.9 °F 32% 30.06 in 10.0 mi SSE 5.8 mph - N/A   Clear
6:53 PM 63.0 °F - 39.9 °F 43% 30.06 in 10.0 mi Variable 3.5 mph - N/A   Clear
7:53 PM 62.1 °F - 37.9 °F 41% 30.06 in 10.0 mi SE 5.8 mph - N/A   Clear
8:53 PM 63.0 °F - 37.0 °F 38% 30.06 in 10.0 mi SE 6.9 mph - N/A   Clear
9:53 PM 63.0 °F - 37.9 °F 40% 30.06 in 10.0 mi SE 5.8 mph - N/A   Clear
10:53 PM 62.1 °F - 37.9 °F 41% 30.07 in 10.0 mi Variable 3.5 mph - N/A   Clear
11:53 PM 62.1 °F - 36.0 °F 38% 30.06 in 10.0 mi Variable 5.8 mph - N/A   Clear